User: anonymous
Location: Unspecified
(0.0000°N, 0.0000°E)
Time: 10:40:53
(UTC+02:00)
Language:

Cosmos 2082 Rocket - Orbit

View from above orbital plane
View from above orbital plane
View from above satellite
View from above satellite

Ground track
Ground track

The orbit data is extracted from the following two-line orbital elements,

1 20625U 90046B   14210.17131701  .00000258  00000-0  15911-3 0  7738
2 20625 070.9988 201.1799 0016378 269.6858 161.9545 14.14529847248781
Epoch (UTC): 29 July 2014 04:06:41
Eccentricity: 0.0016378
inclination: 70.9988°
perigee height: 832 km
apogee height: 856 km
right ascension of ascending node: 201.1799°
argument of perigee: 269.6858°
revolutions per day: 14.14529847
mean anomaly at epoch: 161.9545°
orbit number at epoch: 24878

The dashed part of the orbit path shows where the satellite is in the earth's shadow,  

DLR